Home > Weather > Arica > Past weeks

Flag for Chile Past Weather in Arica, Chile — Yesterday and Last 2 Weeks

Now
63 °F

Overcast.


Feels Like: 63 °F
Forecast: 58 / 70 °F
Wind: 2 mph from Northeast

Location: Arica Airport

Current Time: Aug 24, 2016 at 9:21:54 AM

Latest Report: Aug 24, 2016 at 9:00 AM


Visibility: N/A

Pressure: 30.01 "Hg

Humidity: 77%

Dew Point: 55 °F

Location of AricaLocation

Past Weather in Arica — Graph

°F

Arica Temperature Yesterday

Maximum temperature yesterday: 66 °F (at 12:00 PM)
Minimum temperature yesterday: 59 °F (at 12:00 AM)
Average temperature yesterday: 63 °F

High & Low Weather Summary for the Past Weeks

 TemperatureHumidityPressure
High66 °F (Aug 9, 2:00 PM)83% (Aug 23, 7:00 AM)30.07 "Hg (Aug 23, 7:00 AM)
Low55 °F (Aug 22, 8:00 AM)60% (Aug 19, 3:00 PM)29.86 "Hg (Aug 21, 4:00 PM)
Average63 °F71%29.98 "Hg
* Reported Aug 9 7:00 AM — Aug 24 8:00 AM, Arica, Weather by CustomWeather, © 2016

Note: Actual official high and low records may vary slightly from our data, if they occured in-between our weather recording intervals... More about our weather records

Advertising

Arica Weather History for the Previous 24 Hours

Scroll right to see more
 ConditionsComfort  
Time TempWeatherWind HumidityBarometerVisibility
8:00 AM
Wed, Aug 24
63 °FOvercast.3 mph77%30.01 "HgN/A
7:00 AM63 °FOvercast.5 mph77%30.01 "HgN/A
6:00 AM63 °FOvercast.7 mph77%30.01 "HgN/A
5:00 AM63 °FOvercast.6 mph77%29.98 "HgN/A
4:00 AM64 °FOvercast.5 mph73%29.98 "HgN/A
3:00 AM64 °FOvercast.6 mph78%29.98 "HgN/A
2:00 AM64 °FOvercast.6 mph78%29.98 "HgN/A
1:00 AM64 °FOvercast.2 mph73%30.01 "HgN/A
12:00 AM64 °FOvercast.3 mph73%30.01 "HgN/A
11:00 PM
Tue, Aug 23
64 °FOvercast.2 mph78%30.04 "HgN/A
10:00 PM64 °FOvercast.3 mph78%30.01 "HgN/A
9:00 PM64 °FOvercast.6 mph78%30.01 "HgN/A
8:00 PM64 °FOvercast.5 mph78%29.98 "HgN/A
7:00 PM64 °FOvercast.3 mph78%29.95 "HgN/A
6:00 PM64 °FOvercast.6 mph78%29.92 "HgN/A
5:00 PM64 °FOvercast.8 mph78%29.92 "HgN/A
4:00 PM66 °FPartly sunny.8 mph73%29.89 "HgN/A
3:00 PM66 °FPartly sunny.9 mph73%29.92 "HgN/A
2:00 PM64 °FPartly sunny.6 mph78%29.92 "HgN/A
1:00 PM64 °FPartly sunny.8 mph78%29.95 "HgN/A
12:00 PM66 °FPartly sunny.9 mph64%29.95 "HgN/A
11:00 AM64 °FPartly sunny.5 mph73%29.95 "Hg5 mi
10:00 AM61 °FOvercast.3 mph83%29.92 "Hg4 mi
9:00 AM61 °FLow clouds.3 mph83%29.92 "Hg4 mi
Weather by CustomWeather, © 2016

See weather overviewHow to use our weather pages